This is the latest recevied weather packets stored in our database for station/object K4SHP-15. If no packets are shown the sender has not sent any weather packets the latest 10 day(s).
| Time | Temp. | Humidity | Pressure | Rain* | Wind** | Luminosity | Snow |
|---|---|---|---|---|---|---|---|
| 1777928042 | 23.33° C | 56% | 1014 hPa | 0 mm | - | - | - |
| 1777925882 | 25° C | 51% | 1013.9 hPa | 0 mm | - | - | - |
| 1777925342 | 25° C | 51% | 1013.9 hPa | 0 mm | - | - | - |
| 1777924463 | 25° C | 51% | 1014.2 hPa | 0 mm | - | - | - |
| 1777921202 | 25.56° C | 40% | 1014.8 hPa | 0 mm | - | - | - |
| 1777920842 | 25.56° C | 43% | 1014.9 hPa | 0 mm | - | - | - |
| 1777919762 | 25.56° C | 42% | 1014.9 hPa | 0 mm | - | - | - |
| 1777914542 | 25.56° C | 41% | 1015.5 hPa | 0 mm | - | - | - |
| 1777910402 | 25° C | 44% | 1015.9 hPa | 0 mm | - | - | - |
| 1777906802 | 22.78° C | 55% | 1016.2 hPa | 0 mm | - | - | - |
| 1777904282 | 22.22° C | 61% | 1016.1 hPa | 0 mm | - | - | - |
| 1777901222 | 19.44° C | 72% | 1016.4 hPa | 0 mm | - | - | - |
| 1777900682 | 18.89° C | 75% | 1016.5 hPa | 0 mm | - | - | - |
| 1777900142 | 18.33° C | 76% | 1016.5 hPa | 0 mm | - | - | - |
| 1777899602 | 17.22° C | 79% | 1016.5 hPa | 0 mm | - | - | - |
| 1777899242 | 16.67° C | 81% | 1016.5 hPa | 0 mm | - | - | - |
| 1777894562 | 9.44° C | 97% | 1016.5 hPa | 0 mm | - | - | - |
| 1777892042 | 8.33° C | 96% | 1016.3 hPa | 0 mm | - | - | - |
| 1777890422 | 8.33° C | 96% | 1016 hPa | 0 mm | - | - | - |
| 1777889363 | 8.89° C | 96% | 1016 hPa | 0 mm | - | - | - |
| 1777888802 | 8.89° C | 96% | 1016 hPa | 0 mm | - | - | - |
| 1777886282 | 8.89° C | 95% | 1016 hPa | 0 mm | - | - | - |
| 1777883222 | 8.89° C | 95% | 1016.2 hPa | 0 mm | - | - | - |
| 1777880723 | 9.44° C | 95% | 1016.4 hPa | 0 mm | - | - | - |
| 1777878542 | 9.44° C | 94% | 1016.5 hPa | 0 mm | - | - | - |
* Rain latest hour (hover to see other rain measurements)
** Current wind speed in m/s (hover to see current wind gust speed)